RADUGA-1M 1 [-]

Last updated on Wed Jun 28 2023 00:02:57 GMT+0000 (Coordinated Universal Time)

1 32373U 07058A 23177.75021295 -.00000065 00000+0 00000+0 0 9999 2 32373 7.7292 61.3326 0004802 25.4201 190.4488 0.99393366 57516
UTC large
Height (km)
Speed (km/s)
/
Latitude / Longitude
Inclination (degrees)
Orbital Period (minutes)
Azimuth
Elevation
Range (km)
Doppler Factor

Next 0 passes for location: London (51.5072 / 0.1276)

Sorry there are no passes over London.